Date,TemperatureHighF,TemperatureAvgF,TemperatureLowF,DewpointHighF,DewpointAvgF,DewpointLowF,HumidityHigh,HumidityAvg,HumidityLow,PressureMaxIn,PressureMinIn,WindSpeedMaxMPH,WindSpeedAvgMPH,GustSpeedMaxMPH,PrecipitationSumIn
2013-2-1,46,45,42,44,41,39,92,86,80,29.85,29.56,8,6,9,0.22
2013-2-2,43,40,37,35,32,31,86,76,62,30.13,29.70,8,6,12,0.11
2013-2-3,46,40,36,45,37,29,95,87,70,30.20,29.86,10,5,15,0.08
2013-2-4,50,48,46,46,44,35,92,86,59,29.93,29.79,8,6,19,0.03
2013-2-5,43,39,34,33,29,27,92,69,57,29.60,29.35,9,6,14,0.16
2013-2-6,41,38,34,37,34,32,94,85,73,29.85,29.26,8,4,12,0.22
2013-2-7,40,38,34,34,32,29,88,80,72,29.97,29.87,8,4,16,0.22
2013-2-8,42,36,33,33,30,27,91,78,62,30.07,29.84,4,2,7,0.05
2013-2-9,38,34,30,29,28,26,87,78,60,30.09,29.93,8,2,10,0.00
2013-2-10,34,31,29,28,26,23,85,80,72,29.91,29.66,12,7,12,0.00
2013-2-12,32,31,30,26,24,23,82,74,72,30.04,29.86,7,4,11,0.00
2013-2-13,36,31,28,25,21,19,74,67,55,30.22,30.05,8,3,12,0.00
2013-2-14,35,32,29,35,27,18,97,83,61,30.10,29.81,12,7,20,0.11
2013-2-15,47,42,36,42,38,35,97,89,75,30.17,29.89,5,3,9,0.00
2013-2-16,48,42,39,42,39,37,92,88,76,30.26,30.18,3,1,4,0.00
2013-2-17,41,38,35,41,37,33,97,95,92,30.26,30.11,6,2,11,0.00
2013-2-18,46,36,29,42,28,-76,98,83,69,30.17,30.07,3,2,5,0.00
2013-2-19,40,36,33,35,32,30,91,87,80,30.11,30.06,2,1,2,0.00
2013-2-20,40,36,30,37,27,21,90,73,55,30.21,30.10,8,4,10,0.00
2013-2-21,35,30,26,24,22,20,80,69,57,30.24,30.07,8,5,14,0.00
2013-2-22,32,29,26,21,20,20,79,69,63,30.13,29.95,9,6,16,0.00
2013-2-23,32,29,24,21,19,16,74,65,58,29.99,29.94,12,7,14,0.00
2013-2-24,33,32,30,31,28,22,94,88,67,30.08,29.98,6,5,14,0.08
2013-2-25,38,35,32,34,32,31,94,91,86,30.24,30.07,6,4,11,0.14
2013-2-26,40,37,35,36,34,32,93,89,82,30.44,30.19,6,4,10,0.00
2013-2-27,38,34,33,35,32,31,94,92,89,30.49,30.38,7,5,11,0.00
2013-2-28,36,34,33,32,31,31,92,90,85,30.37,30.29,5,3,8,0.00